Flint, MI

5:05 PM EDT on October 14, 2019 (GMT -0400)
Bishop International

Weather History for KFNT - July, 2019

Change the Weather History Date:

Wednesday, July 24, 2019

  Actual Average Record
Temperature  
Mean Temperature 67 °F 70 °F  
Max Temperature 81 °F 82 °F 105 °F (1934)
Min Temperature 54 °F 59 °F 45 °F (1953)
Degree Days  
Heating Degree Days 0 0  
Month to date heating degree days 10  
Since 1 June heating degree days 76  
Since 1 July heating degree days 10  
Cooling Degree Days 2 6  
Month to date cooling degree days 144  
Year to date cooling degree days 288  
Since 1 June cooling degree days 256  
Growing Degree Days 17 (Base 50)    
Moisture  
Dew Point 54 °F    
Average Humidity 65    
Maximum Humidity 90    
Minimum Humidity 31    
Precipitation  
Precipitation 0.00 in 0.11 in 1.25 in (2005)
Month to date precipitation 2.49  
Year to date precipitation 16.55  
Snow  
Snow 0.00 in 0.00 in 0.00 in ()
Month to date snowfall 0.0  
Since 1 June snowfall 0.0  
Since 1 July snowfall 0.0  
Snow Depth -    
Sea Level Pressure  
Sea Level Pressure 30.11 in    
Wind  
Wind Speed 5 mph (NW)    
Max Wind Speed 13 mph    
Max Gust Speed -    
Visibility 10 miles    
Events Rain    
T = Trace of Precipitation, MM = Missing Value Source: NWS Daily Summary

Daily Weather History Graph

Daily Weather History Graph

Search for Another Location

Airport or City:

Astronomy

Jul. 24, 2019 Rise Set
Actual Time 6:17 AM EDT 9:04 PM EDT
Civil Twilight 5:44 AM EDT 9:37 PM EDT
Nautical Twilight 5:02 AM EDT 10:19 PM EDT
Astronomical Twilight 4:14 AM EDT 11:07 PM EDT
Moon 12:42 AM EDT (7/24) 1:38 PM EDT (7/24)
Length of Visible Light 15h 53m
Length of Day
14h 47m
Waning Gibbous, 54% of the Moon is Illuminated
Jul 24
Waning Gibbous
Jul 24
Last Quarter
Jul 31
New
Aug 7
First Quarter
Aug 15
Full

Hourly Weather History & Observations

Time (EDT) Temp. Dew Point Humidity Pressure Visibility Wind Dir Wind Speed Gust Speed Precip Events Conditions
12:53 AM 61.0 °F 55.9 °F 83% 30.06 in 10.0 mi NW 5.8 mph - N/A   Clear
1:53 AM 60.1 °F 55.9 °F 86% 30.07 in 10.0 mi NW 5.8 mph - N/A   Clear
2:53 AM 57.9 °F 55.0 °F 90% 30.08 in 10.0 mi Calm Calm - N/A   Clear
3:53 AM 57.9 °F 55.0 °F 90% 30.08 in 9.0 mi West 3.5 mph - N/A   Clear
4:53 AM 55.9 °F 53.1 °F 90% 30.08 in 6.0 mi Calm Calm - N/A   Clear
5:53 AM 55.9 °F 53.1 °F 90% 30.09 in 10.0 mi Calm Calm - N/A   Clear
6:53 AM 55.9 °F 53.1 °F 90% 30.12 in 10.0 mi WNW 5.8 mph - N/A   Clear
7:53 AM 60.1 °F 54.0 °F 80% 30.13 in 10.0 mi NW 3.5 mph - N/A   Clear
8:53 AM 63.0 °F 55.0 °F 75% 30.14 in 10.0 mi WNW 4.6 mph - N/A   Clear
9:53 AM 66.9 °F 55.9 °F 68% 30.15 in 10.0 mi North 3.5 mph - N/A   Clear
10:53 AM 71.1 °F 55.9 °F 59% 30.14 in 10.0 mi WNW 8.1 mph - N/A   Clear
11:53 AM 73.9 °F 55.9 °F 53% 30.14 in 10.0 mi WNW 9.2 mph - N/A   Clear
12:53 PM 75.0 °F 53.1 °F 46% 30.15 in 10.0 mi WNW 5.8 mph - N/A   Clear
1:53 PM 77.0 °F 52.0 °F 42% 30.14 in 10.0 mi North 12.7 mph - N/A   Clear
2:53 PM 79.0 °F 52.0 °F 39% 30.12 in 10.0 mi NW 10.4 mph - N/A   Partly Cloudy
3:53 PM 80.1 °F 51.1 °F 36% 30.11 in 10.0 mi Variable 3.5 mph - N/A   Partly Cloudy
4:53 PM 80.1 °F 50.0 °F 35% 30.11 in 10.0 mi North 6.9 mph - N/A   Clear
5:53 PM 79.0 °F 51.1 °F 38% 30.10 in 10.0 mi NW 4.6 mph - N/A   Clear
6:53 PM 78.1 °F 51.1 °F 39% 30.10 in 10.0 mi North 6.9 mph - N/A   Clear
7:53 PM 75.9 °F 53.1 °F 45% 30.11 in 10.0 mi WNW 6.9 mph - N/A   Clear
8:53 PM 69.1 °F 55.0 °F 61% 30.12 in 10.0 mi Calm Calm - 0.00 in   Clear
9:53 PM 64.9 °F 57.0 °F 75% 30.12 in 10.0 mi SW 3.5 mph - 0.00 in Rain Light Rain
10:53 PM 64.0 °F 57.9 °F 80% 30.12 in 10.0 mi Calm Calm - 0.00 in   Mostly Cloudy
11:53 PM 63.0 °F 57.0 °F 81% 30.12 in 10.0 mi Calm Calm - 0.00 in Rain Light Rain